2023/01/30 00:00:00,41.5,-4.3
2023/01/30 00:10:00,41.5,-4.2
2023/01/30 00:20:00,41.4,-4.2
2023/01/30 00:30:00,41.4,-4.6
2023/01/30 00:40:00,41.5,-4.8
2023/01/30 00:50:00,41.4,-4.5
2023/01/30 01:00:00,41.4,-4.8
2023/01/30 01:10:00,41.3,-4.6
2023/01/30 01:20:00,41.3,-4.9
2023/01/30 01:30:00,41.3,-5.0
2023/01/30 01:40:00,41.3,-5.0
2023/01/30 01:50:00,41.3,-4.9
2023/01/30 02:00:00,41.3,-5.4
2023/01/30 02:10:00,41.3,-5.7
2023/01/30 02:20:00,41.2,-5.5
2023/01/30 02:30:00,41.1,-5.5
2023/01/30 02:40:00,41.1,-5.6
2023/01/30 02:50:00,41.1,-5.6
2023/01/30 03:00:00,41.1,-5.6
2023/01/30 03:10:00,41.1,-5.6
2023/01/30 03:20:00,41.1,-5.9
2023/01/30 03:30:00,41.0,-5.9
2023/01/30 03:40:00,41.0,-6.0
2023/01/30 03:50:00,40.9,-5.8
2023/01/30 04:00:00,41.0,-5.9
2023/01/30 04:10:00,40.9,-5.9
2023/01/30 04:20:00,40.9,-5.4
2023/01/30 04:30:00,40.9,-5.2
2023/01/30 04:40:00,40.8,-5.1
2023/01/30 04:50:00,40.9,-4.7
2023/01/30 05:00:00,40.8,-5.0
2023/01/30 05:10:00,40.7,-4.9
2023/01/30 05:20:00,40.7,-4.7
2023/01/30 05:30:00,40.7,-4.6
2023/01/30 05:40:00,40.7,-4.5
2023/01/30 05:50:00,41.1,-4.4
2023/01/30 06:00:00,41.9,-4.4
2023/01/30 06:10:00,41.9,-4.3
2023/01/30 06:20:00,42.0,-3.9
2023/01/30 06:30:00,42.4,-3.9
2023/01/30 06:40:00,42.7,-4.0
2023/01/30 06:50:00,43.0,-3.9
2023/01/30 07:00:00,43.2,-3.8
2023/01/30 07:10:00,43.2,-3.8
2023/01/30 07:20:00,43.1,-3.7
2023/01/30 07:30:00,43.5,-3.9
2023/01/30 07:40:00,43.5,-3.8
2023/01/30 07:50:00,43.5,-3.4
2023/01/30 08:00:00,43.5,-3.6
2023/01/30 08:10:00,43.5,-3.3
2023/01/30 08:20:00,43.4,-3.1
2023/01/30 08:30:00,43.3,-3.1
2023/01/30 08:40:00,43.1,-2.5
2023/01/30 08:50:00,43.0,-2.2
2023/01/30 09:00:00,43.4,-1.7
2023/01/30 09:10:00,44.0,-2.1
2023/01/30 09:20:00,44.4,-1.8
2023/01/30 09:30:00,44.9,-1.1
2023/01/30 09:40:00,45.6,-1.2
2023/01/30 09:50:00,46.0,-1.2
2023/01/30 10:00:00,46.0,-0.8
2023/01/30 10:10:00,45.9,-0.6
2023/01/30 10:20:00,46.1,-0.7
2023/01/30 10:30:00,46.6,-0.4
2023/01/30 10:40:00,47.1,-0.4
2023/01/30 10:50:00,47.5, 0.1
2023/01/30 11:00:00,47.6,-0.4
2023/01/30 11:10:00,48.1, 0.4
2023/01/30 11:20:00,48.8, 0.9
2023/01/30 11:30:00,48.6, 1.8
2023/01/30 11:40:00,48.6, 2.8
2023/01/30 11:50:00,49.2, 4.2
2023/01/30 12:00:00,49.2, 2.4
2023/01/30 12:10:00,49.4, 1.4
2023/01/30 12:20:00,49.7, 3.0
2023/01/30 12:30:00,49.1, 5.4
2023/01/30 12:40:00,49.4, 2.8
2023/01/30 12:50:00,49.9, 1.9
2023/01/30 13:00:00,49.8, 3.7
2023/01/30 13:10:00,49.5, 5.3
2023/01/30 13:20:00,49.3, 3.9
2023/01/30 13:30:00,49.1, 5.1
2023/01/30 13:40:00,48.6, 5.1
2023/01/30 13:50:00,48.4, 3.4
2023/01/30 14:00:00,48.3, 2.0
2023/01/30 14:10:00,48.0, 2.6
2023/01/30 14:20:00,47.7, 3.0
2023/01/30 14:30:00,47.5, 2.8
2023/01/30 14:40:00,47.5, 2.1
2023/01/30 14:50:00,47.5, 2.0
2023/01/30 15:00:00,47.5, 1.5
2023/01/30 15:10:00,47.5, 0.9
2023/01/30 15:20:00,48.0, 0.7
2023/01/30 15:30:00,48.2, 0.7
2023/01/30 15:40:00,48.6, 0.8
2023/01/30 15:50:00,48.9, 1.4
2023/01/30 16:00:00,48.7, 1.3
2023/01/30 16:10:00,48.4, 1.5
2023/01/30 16:20:00,48.2, 1.3
2023/01/30 16:30:00,48.1, 0.7
2023/01/30 16:40:00,48.3, 0.4
2023/01/30 16:50:00,48.2, 0.5
2023/01/30 17:00:00,48.2, 0.0
2023/01/30 17:10:00,48.4, 0.2
2023/01/30 17:20:00,48.9, 0.0
2023/01/30 17:30:00,48.6,-0.2
2023/01/30 17:40:00,48.5,-0.3
2023/01/30 17:50:00,48.8,-0.1
2023/01/30 18:00:00,49.1, 0.0
2023/01/30 18:10:00,49.3,-0.3
2023/01/30 18:20:00,49.5, 0.0
2023/01/30 18:30:00,49.4,-0.3
2023/01/30 18:40:00,49.2,-0.3
2023/01/30 18:50:00,49.1,-0.2
2023/01/30 19:00:00,49.2,-0.1
2023/01/30 19:10:00,49.5,-0.4
2023/01/30 19:20:00,49.7,-0.2
2023/01/30 19:30:00,49.6,-0.1
2023/01/30 19:40:00,49.7,-0.2
2023/01/30 19:50:00,49.9,-0.2
2023/01/30 20:00:00,50.1,-0.2
2023/01/30 20:10:00,50.1,-0.1
2023/01/30 20:20:00,50.2,-0.3
2023/01/30 20:30:00,50.2, 0.0
2023/01/30 20:40:00,50.1,-0.1
2023/01/30 20:50:00,50.1,-0.3
2023/01/30 21:00:00,50.4,-0.1
2023/01/30 21:10:00,51.3,-0.3
2023/01/30 21:20:00,51.0,-0.2
2023/01/30 21:30:00,50.8,-0.2
2023/01/30 21:40:00,50.9,-0.4
2023/01/30 21:50:00,50.6,-0.5
2023/01/30 22:00:00,50.6,-0.3
2023/01/30 22:10:00,50.8,-0.5
2023/01/30 22:20:00,51.1,-0.3
2023/01/30 22:30:00,51.0,-0.3
2023/01/30 22:40:00,50.9,-0.3
2023/01/30 22:50:00,50.9,-0.3
2023/01/30 23:00:00,50.8,-0.3
2023/01/30 23:10:00,50.8,-0.3
2023/01/30 23:20:00,51.5,-0.3
2023/01/30 23:30:00,51.6,-0.1
2023/01/30 23:40:00,52.0,-0.4
2023/01/30 23:50:00,52.1,-0.4
